Station LKWF1 - 8722670 - Lake Worth Pier, FL Image indicating link to RSS feed of recent meteorological observations for station LKWF1


Conditions at LKWF1 as of
(3:00 pm EDT)
1900 GMT on 04/23/2024:
     

Click on the graph icon in the table below to see a time series plot of the last five days of that observation.

5-day plot - Wind Direction Wind Direction (WDIR):ENE ( 60 deg true )
5-day plot - Wind Speed Wind Speed (WSPD): 13.0 kts
5-day plot - Wind Gust Wind Gust (GST): 15.0 kts
5-day plot - Atmospheric Pressure Atmospheric Pressure (PRES):30.14 in
5-day plot - Pressure Tendency Pressure Tendency (PTDY):-0.02 in ( Falling )
5-day plot - Air Temperature Air Temperature (ATMP): 72.9 °F
5-day plot - Water Temperature Water Temperature (WTMP): 76.8 °F
5-day plot - Wind Speed at 10 Meters Wind Speed at 10 meters (WSPD10M): 13.6 kts
5-day plot - Wind Speed at 20 Meters Wind Speed at 20 meters (WSPD20M): 13.6 kts
5-day plot -  Wind Speed, Wind Gust and Atmospheric Pressure Combined plot of Wind Speed, Gust, and Air Pressure
NOS Water Level Observation Network Water Level
Previous observations
TIME
(EDT)
5-day plot - Wind Direction
WDIR
 
5-day plot - Wind Speed
WSPD
kts
5-day plot - Wind Gust
GST
kts
5-day plot - Wave Height
WVHT
ft
5-day plot - Dominant Wave Period
DPD
sec
5-day plot - Average Wave Period
APD
sec
5-day plot - Mean Wave Direction
MWD
 
5-day plot - Atmospheric Pressure
PRES
in
5-day plot - Pressure Tendency
PTDY
in
5-day plot - Air Temperature
ATMP
°F
5-day plot - Water Temperature
WTMP
°F
5-day plot - Dew Point
DEWP
°F
5-day plot - Salinity
SAL
psu
5-day plot - Visibility
VIS
nmi
5-day plot - Tide (above MLLW)
TIDE
ft
2024-04-23 02:54 pm NE 13.0 15.9----30.14- 72.9 76.8----
2024-04-23 02:48 pm NE 12.0 15.0----30.14- 72.7 76.8----
2024-04-23 02:42 pm NE 11.1 14.0----30.15- 72.7 76.8----
2024-04-23 02:36 pm NE 12.0 14.0----30.15- 72.7 76.8----
2024-04-23 02:30 pm NE 13.0 15.0----30.15- 72.7 76.6----
2024-04-23 02:24 pm NE 14.0 15.9----30.15- 72.7 76.6----
2024-04-23 02:18 pm NE 14.0 18.1----30.15- 72.5 76.6----
2024-04-23 02:12 pm NE 15.0 18.1----30.15- 72.5 76.5----
2024-04-23 02:06 pm NE 13.0 17.1----30.15- 72.7 76.5----
2024-04-23 02:00 pm NE 14.0 15.9----30.15-0.01 72.7 76.5----
2024-04-23 01:54 pm NE 14.0 18.1----30.15- 72.9 76.5----
2024-04-23 01:48 pm NE 14.0 17.1----30.15- 72.9 76.5----
2024-04-23 01:42 pm NE 14.0 15.0----30.15- 72.7 76.3----
2024-04-23 01:36 pm NE 13.0 17.1----30.16- 72.9 76.3----
2024-04-23 01:30 pm NE 13.0 17.1----30.16- 72.9 76.3----
2024-04-23 01:24 pm NE 15.0 17.1----30.16- 72.7 76.1----
2024-04-23 01:18 pm NE 11.1 17.1----30.16- 73.0 76.1----
2024-04-23 01:12 pmNNE 15.0 18.1----30.16- 72.9 75.9----
2024-04-23 01:06 pmNNE 15.0 17.1----30.16- 72.7 75.9----
2024-04-23 01:00 pm NE 12.0 15.0----30.16+0.01 72.7 75.9----
2024-04-23 12:54 pm NE 12.0 17.1----30.16- 72.9 75.9----
2024-04-23 12:48 pm NE 13.0 17.1----30.16- 72.7 75.9----
2024-04-23 12:42 pm NE 14.0 17.1----30.16- 72.7 75.9----
2024-04-23 12:36 pm NE 14.0 15.9----30.16- 72.5 76.1----
2024-04-23 12:30 pm NE 9.9 15.9----30.17- 72.7 75.9----
2024-04-23 12:24 pmNNE 12.0 15.9----30.16- 72.7 75.7----
2024-04-23 12:18 pm NE 14.0 19.0----30.17- 72.5 75.7----
2024-04-23 12:12 pm NE 15.0 17.1----30.16- 72.5 75.7----
2024-04-23 12:06 pm NE 15.0 17.1----30.16- 72.5 75.7----
2024-04-23 12:00 pm NE 12.0 18.1----30.16+0.04 72.7 75.7----
2024-04-23 11:54 am NE 13.0 17.1----30.16- 72.7 75.7----
2024-04-23 11:48 am NE 13.0 17.1----30.17- 72.5 75.7----
2024-04-23 11:42 am NE 12.0 15.9----30.17- 72.7 75.7----
2024-04-23 11:36 am NE 14.0 18.1----30.17- 72.5 75.7----
2024-04-23 11:30 am NE 11.1 14.0----30.17- 72.9 75.7----
2024-04-23 11:24 amENE 11.1 14.0----30.17- 72.5 75.6----
2024-04-23 11:18 am NE 12.0 14.0----30.17- 72.7 75.6----
2024-04-23 11:12 am NE 12.0 14.0----30.17- 72.5 75.6----
2024-04-23 11:06 am NE 12.0 13.0----30.17- 72.7 75.7----
2024-04-23 11:00 am NE 12.0 13.0----30.17+0.06 72.5 75.7----
2024-04-23 10:54 am NE 11.1 14.0----30.16- 72.7 75.7----
2024-04-23 10:48 am NE 13.0 15.0----30.16- 72.5 75.7----
2024-04-23 10:42 am NE 13.0 17.1----30.16- 72.7 75.6----
2024-04-23 10:36 am NE 12.0 15.0----30.16- 72.5 75.6----
2024-04-23 10:30 am NE 12.0 15.0----30.16- 72.5 75.6----
2024-04-23 10:24 am NE 11.1 15.0----30.16- 72.5 75.6----
2024-04-23 10:18 am NE 12.0 15.0----30.15- 72.5 75.4----
2024-04-23 10:12 amNNE 12.0 15.0----30.15- 72.3 75.6----
2024-04-23 10:06 am NE 13.0 15.9----30.15- 72.3 75.6----
2024-04-23 10:00 am NE 12.0 15.0----30.15+0.06 72.5 75.4----
2024-04-23 09:54 am NE 13.0 15.9----30.14- 72.3 75.4----
2024-04-23 09:48 am NE 13.0 17.1----30.14- 72.5 75.4----
2024-04-23 09:42 am NE 14.0 15.9----30.14- 72.3 75.4----
2024-04-23 09:36 am NE 14.0 15.9----30.13- 72.3 75.4----
2024-04-23 09:30 am NE 13.0 17.1----30.13- 72.3 75.4----
2024-04-23 09:24 am NE 15.0 20.0----30.13- 72.3 75.4----
2024-04-23 09:18 am NE 14.0 19.0----30.13- 72.3 75.4----
2024-04-23 09:12 am NE 14.0 17.1----30.13- 72.5 75.4----
2024-04-23 09:06 am NE 12.0 14.0----30.13- 72.1 75.4----
2024-04-23 09:00 am NE 15.0 17.1----30.12+0.06 72.1 75.4----
2024-04-23 08:54 am NE 14.0 18.1----30.12- 72.1 75.6----
2024-04-23 08:48 am NE 15.0 17.1----30.12- 72.1 75.6----
2024-04-23 08:42 am NE 14.0 17.1----30.11- 72.3 75.6----
2024-04-23 08:36 am NE 15.0 19.0----30.11- 72.1 75.6----
2024-04-23 08:30 am NE 13.0 18.1----30.11- 72.1 75.6----
2024-04-23 08:24 am NE 15.9 19.0----30.11- 72.3 75.6----
2024-04-23 08:18 am NE 15.0 18.1----30.11- 72.3 75.6----
2024-04-23 08:12 am NE 14.0 19.0----30.11- 72.1 75.6----
2024-04-23 08:06 am NE 15.9 19.0----30.10- 72.1 75.7----
2024-04-23 08:00 am NE 15.0 19.0----30.10+0.06 72.1 75.7----
2024-04-23 07:54 am NE 17.1 20.0----30.10- 72.0 75.7----
2024-04-23 07:48 am NE 15.0 20.0----30.10- 72.1 75.7----
2024-04-23 07:42 am NE 15.9 19.0----30.10- 72.1 75.7----
2024-04-23 07:36 am NE 15.9 19.0----30.10- 72.1 75.7----
2024-04-23 07:30 am NE 15.0 19.0----30.10- 72.1 75.7----
2024-04-23 07:24 am NE 15.0 20.0----30.09- 72.3 75.7----
2024-04-23 07:18 am NE 15.9 21.0----30.09- 72.1 75.6----
2024-04-23 07:12 am NE 15.9 19.0----30.09- 72.1 75.7----
2024-04-23 07:06 am NE 17.1 21.0----30.09- 72.0 75.7----
2024-04-23 07:00 am NE 15.9 21.0----30.09+0.04 72.1 75.7----
2024-04-23 06:54 am NE 17.1 20.0----30.08- 72.1 75.7----
2024-04-23 06:48 am NE 18.1 20.0----30.08- 72.1 75.7----
2024-04-23 06:42 am NE 19.0 20.0----30.08- 72.1 75.9----
2024-04-23 06:36 am NE 18.1 21.0----30.07- 72.1 75.9----
2024-04-23 06:30 am NE 18.1 21.0----30.07- 72.3 75.9----
2024-04-23 06:24 am NE 17.1 22.0----30.07- 72.3 75.9----
2024-04-23 06:18 am NE 19.0 22.0----30.06- 72.1 75.9----
2024-04-23 06:12 am NE 17.1 22.0----30.06- 72.1 75.9----
2024-04-23 06:06 am NE 17.1 21.0----30.06- 72.3 75.9----
2024-04-23 06:00 am NE 15.9 21.0----30.06+0.01 72.1 75.9----
2024-04-23 05:54 am NE 15.9 22.0----30.06- 72.1 75.9----
2024-04-23 05:48 am NE 17.1 21.0----30.06- 72.5 76.1----
2024-04-23 05:42 am NE 17.1 19.0----30.06- 72.0 76.1----
2024-04-23 05:36 am NE 18.1 22.0----30.06- 72.3 76.1----
2024-04-23 05:30 am NE 19.0 21.0----30.05- 72.3 75.9----
2024-04-23 05:24 am NE 19.0 21.0----30.05- 72.1 75.9----
2024-04-23 05:18 am NE 19.0 21.0----30.05- 72.1 76.1----
2024-04-23 05:12 am NE 19.0 22.9----30.05- 72.1 75.9----
2024-04-23 05:06 am NE 19.0 21.0----30.05- 72.3 76.1----
2024-04-23 05:00 amNNE 19.0 24.1----30.05+0.00 72.3 76.3----
2024-04-23 04:54 am NE 19.0 24.1----30.04- 72.5 76.3----
2024-04-23 04:48 am NE 21.0 24.1----30.04- 72.3 76.3----
2024-04-23 04:42 am NE 19.0 22.9----30.04- 72.3 76.3----
2024-04-23 04:36 am NE 20.0 24.1----30.04- 72.3 76.3----
2024-04-23 04:30 am NE 19.0 22.0----30.04- 72.3 76.5----
2024-04-23 04:24 am NE 17.1 19.0----30.04- 72.5 76.5----
2024-04-23 04:18 am NE 17.1 20.0----30.04- 72.7 76.5----
2024-04-23 04:12 am NE 18.1 22.0----30.04- 72.5 76.5----
2024-04-23 04:06 amNNE 18.1 22.0----30.04- 72.5 76.5----
2024-04-23 04:00 am NE 19.0 21.0----30.04-0.02 72.5 76.5----
2024-04-23 03:54 am NE 18.1 22.0----30.04- 72.5 76.5----
2024-04-23 03:48 amNNE 18.1 22.9----30.04- 72.7 76.5----
2024-04-23 03:42 amNNE 19.0 22.0----30.04- 72.7 76.6----
2024-04-23 03:36 amNNE 19.0 21.0----30.04- 72.7 76.6----
2024-04-23 03:30 amNNE 19.0 22.0----30.04- 72.7 76.6----
2024-04-23 03:24 amNNE 19.0 22.0----30.05- 72.7 76.6----
2024-04-23 03:18 amNNE 20.0 22.9----30.04- 72.7 76.6----
2024-04-23 03:12 amNNE 20.0 22.0----30.04- 72.7 76.6----
2024-04-23 03:06 amNNE 21.0 22.9----30.04- 72.9 76.6----
2024-04-23 03:00 amNNE 21.0 24.1----30.05-0.01 72.9 76.6----
2024-04-23 02:54 amNNE 22.0 24.1----30.05- 72.7 76.8----
2024-04-23 02:48 amNNE 22.9 25.1----30.05- 72.9 76.8----
2024-04-23 02:42 amNNE 21.0 26.0----30.05- 73.0 76.8----
2024-04-23 02:36 amNNE 20.0 25.1----30.05- 73.4 76.8----
2024-04-23 02:30 amNNE 22.0 26.0----30.05- 73.2 77.0----
2024-04-23 02:24 amNNE 22.0 24.1----30.05- 73.4 77.0----
2024-04-23 02:18 amNNE 20.0 22.0----30.05- 73.6 77.0----
2024-04-23 02:12 amNNE 19.0 22.9----30.05- 73.6 77.0----
2024-04-23 02:06 amNNE 19.0 22.0----30.05- 73.6 77.0----
2024-04-23 02:00 amNNE 19.0 21.0----30.05+0.00 73.8 77.0----
2024-04-23 01:54 amNNE 18.1 21.0----30.05- 73.8 77.0----
2024-04-23 01:48 am N 17.1 21.0----30.06- 73.0 76.8----
2024-04-23 01:42 am N 17.1 22.0----30.06- 72.5 76.8----
2024-04-23 01:36 am N 19.0 22.9----30.06- 72.1 76.8----
2024-04-23 01:30 am N 20.0 22.0----30.06- 72.3 76.8----
2024-04-23 01:24 am N 18.1 25.1----30.06- 72.3 76.8----
2024-04-23 01:18 am N 22.9 27.0----30.06- 72.9 76.8----
2024-04-23 01:12 am N 22.9 27.0----30.06- 72.7 76.8----
2024-04-23 01:06 amNNE 24.1 28.0----30.06- 72.9 76.8----
2024-04-23 01:00 am N 21.0 24.1----30.06+0.02 73.0 76.8----
2024-04-23 12:54 am N 24.1 26.0----30.06- 72.9 76.8----
2024-04-23 12:48 am N 19.0 24.1----30.06- 72.7 76.8----
2024-04-23 12:42 am N 24.1 28.0----30.06- 73.0 76.8----
2024-04-23 12:36 am N 22.9 26.0----30.06- 73.2 76.8----
2024-04-23 12:30 am N 22.0 26.0----30.06- 72.9 77.0----
2024-04-23 12:24 am N 24.1 27.0----30.06- 73.2 77.0----
2024-04-23 12:18 amNNE 21.0 27.0----30.06- 73.4 77.2----
2024-04-23 12:12 am N 22.9 28.0----30.06- 73.4 77.0----
2024-04-23 12:06 amNNE 22.9 26.0----30.06- 73.6 77.0----
2024-04-23 12:00 amNNE 24.1 28.0----30.06+0.03 73.8 77.0----
2024-04-22 11:54 pmNNE 24.1 28.9----30.06- 74.1 77.0----
2024-04-22 11:48 pmNNE 25.1 27.0----30.06- 73.8 77.0----
2024-04-22 11:42 pmNNE 24.1 27.0----30.06- 73.9 77.0----
2024-04-22 11:36 pmNNE 22.9 28.0----30.06- 73.9 77.0----
2024-04-22 11:30 pmNNE 24.1 27.0----30.06- 73.8 77.0----
2024-04-22 11:24 pmNNE 24.1 27.0----30.06- 73.6 77.0----
2024-04-22 11:18 pm N 22.9 26.0----30.06- 73.6 77.2----
2024-04-22 11:12 pm N 22.9 26.0----30.05- 73.2 77.2----
2024-04-22 11:06 pm N 24.1 26.0----30.06- 73.4 77.2----
2024-04-22 11:00 pm N 19.0 24.1----30.06+0.05 73.2 77.4----
2024-04-22 10:54 pm N 21.0 27.0----30.05- 73.0 77.4----
2024-04-22 10:48 pm N 24.1 28.0----30.05- 73.2 77.4----
2024-04-22 10:42 pm N 22.9 27.0----30.05- 73.0 77.4----
2024-04-22 10:36 pm N 22.9 27.0----30.05- 73.0 77.4----
2024-04-22 10:30 pm N 21.0 27.0----30.04- 73.0 77.4----
2024-04-22 10:24 pm N 24.1 27.0----30.04- 72.9 77.4----
2024-04-22 10:18 pm N 22.9 26.0----30.04- 72.9 77.5----
2024-04-22 10:12 pm N 20.0 24.1----30.05- 72.7 77.5----
2024-04-22 10:06 pm N 21.0 27.0----30.04- 72.7 77.5----
2024-04-22 10:00 pm N 20.0 27.0----30.04+0.06 72.9 77.5----
2024-04-22 09:54 pm N 21.0 25.1----30.04- 72.5 77.5----
2024-04-22 09:48 pm N 20.0 25.1----30.04- 72.3 77.5----
2024-04-22 09:42 pm N 19.0 22.9----30.04- 72.5 77.5----
2024-04-22 09:36 pm N 20.0 22.9----30.04- 72.3 77.5----
2024-04-22 09:30 pm N 19.0 25.1----30.03- 72.7 77.5----
2024-04-22 09:24 pm N 20.0 27.0----30.03- 72.9 77.7----
2024-04-22 09:18 pm N 22.0 25.1----30.03-- 77.7----
2024-04-22 09:12 pm N 18.1 25.1----30.03-- 77.7----
2024-04-22 09:06 pm N 20.0 26.0----30.03-- 77.7----
2024-04-22 09:00 pm N 22.9 26.0----30.03+0.06 72.7 77.7----
2024-04-22 08:54 pm N 24.1 27.0----30.02- 72.3 77.7----
2024-04-22 08:48 pm N 20.0 25.1----30.02-- 77.7----
2024-04-22 08:42 pm N 19.0 25.1----30.02-- 77.7----
2024-04-22 08:36 pm N 21.0 28.0----30.02-- 77.7----
2024-04-22 08:30 pm N 22.9 27.0----30.01- 72.3 77.7----
2024-04-22 08:24 pm N 22.9 26.0----30.01- 72.3 77.7----
2024-04-22 08:18 pm--------- 72.5 77.7----
2024-04-22 08:12 pm--------- 72.3 77.7----
2024-04-22 08:06 pm--------- 72.1 77.7----
2024-04-22 08:00 pmNNE 22.0 28.0----30.00+0.05 72.1 77.7----
2024-04-22 07:54 pm N 24.1 26.0----30.00- 72.1 77.7----
2024-04-22 07:48 pm N 22.9 26.0----30.00- 72.1 77.7----
2024-04-22 07:42 pmNNE 22.0 26.0----29.99- 72.7 77.7----
2024-04-22 07:36 pmNNE 22.9 27.0----29.99- 72.5 77.7----
2024-04-22 07:30 pmNNE 22.0 26.0----29.99- 72.3 77.7----
2024-04-22 07:24 pm N 22.0 25.1----29.99- 72.1 77.9----
2024-04-22 07:18 pmNNE 21.0 25.1----29.98- 72.1 77.9----
2024-04-22 07:12 pmNNE 20.0 25.1----29.98- 72.5 77.9----
2024-04-22 07:06 pm N 22.0 24.1----29.98- 72.3 77.9----
2024-04-22 07:00 pmNNE 20.0 25.1----29.98+0.04 72.5 78.1----
2024-04-22 06:54 pmNNE 21.0 25.1----29.98- 72.0 78.1----
2024-04-22 06:48 pmNNE 21.0 25.1----29.97- 71.8 78.1----
2024-04-22 06:42 pm N 21.0 24.1----29.98- 72.1 78.1----
2024-04-22 06:36 pmNNE 19.0 22.9----29.97- 72.3 78.1----
2024-04-22 06:30 pmNNE 21.0 22.9----29.97- 72.0 78.1----
2024-04-22 06:24 pmNNE 21.0 22.9----29.97- 71.8 78.1----
2024-04-22 06:18 pm N 20.0 22.9----29.97- 71.8 78.1----
2024-04-22 06:12 pmNNE 21.0 26.0----29.97- 71.6 78.1----
2024-04-22 06:06 pm N 22.0 24.1----29.97- 71.8 78.3----
2024-04-22 06:00 pm N 21.0 25.1----29.97+0.01 71.4 78.3----
2024-04-22 05:54 pmNNE 21.0 24.1----29.96- 71.4 78.4----
2024-04-22 05:48 pmNNE 21.0 25.1----29.96- 71.8 78.4----
2024-04-22 05:42 pmNNE 22.0 25.1----29.96- 71.4 78.4----
2024-04-22 05:36 pmNNE 22.0 25.1----29.96- 71.6 78.4----
2024-04-22 05:30 pm N 22.0 26.0----29.96- 71.8 78.4----
2024-04-22 05:24 pmNNE 22.9 25.1----29.96- 71.8 78.6----
2024-04-22 05:18 pmNNE 22.9 25.1----29.96- 71.8 78.6----
2024-04-22 05:12 pmNNE 22.0 25.1----29.96- 72.0 78.6----
2024-04-22 05:06 pmNNE 22.9 25.1----29.95- 72.1 78.6----
2024-04-22 05:00 pmNNE 20.0 24.1----29.95-0.01 72.3 78.6----
2024-04-22 04:54 pmNNE 21.0 24.1----29.95- 72.3 78.6----
2024-04-22 04:48 pmNNE 22.0 25.1----29.95- 72.3 78.6----
2024-04-22 04:42 pmNNE 22.9 26.0----29.95- 72.1 78.6----
2024-04-22 04:36 pmNNE 22.0 24.1----29.95- 72.5 78.6----
2024-04-22 04:30 pmNNE 22.9 24.1----29.95- 72.5 78.6----
2024-04-22 04:24 pmNNE 22.0 24.1----29.94- 72.5 78.6----
2024-04-22 04:18 pmNNE 20.0 24.1----29.94- 72.9 78.6----
2024-04-22 04:12 pmNNE 22.0 25.1----29.94- 73.0 78.6----
2024-04-22 04:06 pmNNE 20.0 24.1----29.94- 73.4 78.6----
2024-04-22 04:00 pmNNE 21.0 22.0----29.94-0.03 73.6 78.4----
2024-04-22 03:54 pmNNE 19.0 22.0----29.94- 73.6 78.4----
2024-04-22 03:48 pm N 19.0 22.0----29.95- 73.6 78.4----
2024-04-22 03:42 pm N 17.1 20.0----29.94- 73.4 78.4----
2024-04-22 03:36 pmNNE 21.0 24.1----29.94- 73.4 78.4----
2024-04-22 03:30 pm N 22.0 25.1----29.94- 73.2 78.3----
2024-04-22 03:24 pmNNE 21.0 22.9----29.95- 73.6 78.3----
2024-04-22 03:18 pm N 22.0 24.1----29.95- 73.6 78.3----
2024-04-22 03:12 pm N 21.0 24.1----29.95- 74.1 78.3----
2024-04-22 03:06 pm N 21.0 24.1----29.95- 74.1 78.3----
2024-04-22 03:00 pm N 21.0 24.1----29.95-0.03 74.3 78.3----
2024-04-22 02:54 pm N 22.9 25.1----29.96- 74.3 78.3----